User: anonymous   Login
Location: Florida Caverns State Park
(30.8073°N, 85.2161°W)
Time: 08:44:28
(UTC-04:00)
Language:

N. Korean satellite - Orbit

View from above orbital plane
View from above orbital plane
View from above satellite
View from above satellite

Ground track
Ground track

The orbit data is extracted from the following two-line orbital elements,

1 39026U 12072A   19142.48247236  .00000832  00000-0  32758-4 0  9997
2 39026  97.2110 146.5147 0037618 195.3889 164.6210 15.27746422357441
Epoch (UTC): 22 May 2019 11:34:45
Eccentricity: 0.0037618
inclination: 97.2110°
perigee height: 457 km
apogee height: 508 km
right ascension of ascending node: 146.5147°
argument of perigee: 195.3889°
revolutions per day: 15.27746422
mean anomaly at epoch: 164.6210°
orbit number at epoch: 35744

The dashed part of the orbit path shows where the satellite is in the earth's shadow,  

DLR